Weather History for Jackson, MS

Change the Weather History Date:

Monday, June 10, 2013

  Actual Average Record
Temperature  
Mean Temperature 80 °F 78 °F  
Max Temperature 90 °F 89 °F 101 °F (1911)
Min Temperature 69 °F 68 °F 51 °F (1930)
Degree Days  
Heating Degree Days 0 0  
Month to date heating degree days 0 0  
Since 1 June heating degree days 0 0  
Since 1 July heating degree days 2309 2391  
Cooling Degree Days 15 13  
Month to date cooling degree days 128 123  
Year to date cooling degree days 446 481  
Since 1 June cooling degree days 128 123  
Growing Degree Days 30 (Base 50)    
Moisture  
Dew Point 70 °F    
Average Humidity 76    
Maximum Humidity 100    
Minimum Humidity 52    
Precipitation  
Precipitation 0.00 in 0.13 in 6.49 in (1997)
Month to date precipitation 4.12 1.30  
Year to date precipitation 37.18 25.41  
Sea Level Pressure  
Sea Level Pressure 29.97 in    
Wind  
Wind Speed 4 mph (SW)    
Max Wind Speed 10 mph    
Max Gust Speed 14 mph    
Visibility 10 miles    
Events      
T = Trace of Precipitation, MM = Missing Value Source: NWS Daily Summary

Daily Weather History Graph

Daily Weather History Graph

Search for Another Location

Airport:

Trip Planner

Search our weather history database for the weather conditions in past years. The results will help you decide how hot, cold, wet, or windy it might be!

Date:

Astronomy

Jun. 10, 2013 Rise Set
Actual Time 5:52 AM CDT 8:06 PM CDT
Civil Twilight 5:24 AM CDT 8:35 PM CDT
Nautical Twilight 4:50 AM CDT 9:09 PM CDT
Astronomical Twilight 4:12 AM CDT 9:47 PM CDT
Moon 7:37 AM CDT (6/10) 9:39 PM CDT (6/10)
Length of Visible Light 15h 10m
Length of Day
14h 14m
Waxing Crescent, 4% of the Moon is Illuminated
Jun 10
Waxing Crescent
Jun 16
First Quarter
Jun 23
Full
Jun 29
Last Quarter
Jul 8
New

Hourly Weather History & Observations

Time (CDT) Temp. Heat Index Dew Point Humidity Pressure Visibility Wind Dir Wind Speed Gust Speed Precip Events Conditions
12:54 AM 72.0 °F - 70.0 °F 93% 29.94 in 10.0 mi SSW 3.5 mph - N/A   Clear
1:54 AM 71.1 °F - 69.1 °F 93% 29.94 in 10.0 mi SSW 4.6 mph - N/A   Scattered Clouds
2:54 AM 70.0 °F - 69.1 °F 97% 29.95 in 10.0 mi Calm Calm - N/A   Scattered Clouds
3:54 AM 71.1 °F - 69.1 °F 93% 29.95 in 10.0 mi SSW 4.6 mph - N/A   Scattered Clouds
4:54 AM 70.0 °F - 68.0 °F 93% 29.95 in 10.0 mi Calm Calm - N/A   Clear
5:54 AM 70.0 °F - 68.0 °F 93% 29.97 in 10.0 mi South 3.5 mph - N/A   Scattered Clouds
6:54 AM 71.1 °F - 69.1 °F 93% 29.98 in 10.0 mi South 3.5 mph - N/A   Partly Cloudy
7:54 AM 72.0 °F - 69.1 °F 91% 29.99 in 10.0 mi SW 4.6 mph - N/A   Partly Cloudy
8:54 AM 75.9 °F - 70.0 °F 82% 29.99 in 10.0 mi SW 5.8 mph - N/A   Scattered Clouds
9:54 AM 79.0 °F - 70.0 °F 74% 29.99 in 10.0 mi West 3.5 mph - N/A   Partly Cloudy
10:54 AM 82.9 °F 87.5 °F 71.1 °F 67% 30.00 in 10.0 mi West 5.8 mph - N/A   Partly Cloudy
11:54 AM 84.0 °F 89.0 °F 71.1 °F 65% 30.00 in 10.0 mi SW 6.9 mph - N/A   Partly Cloudy
12:54 PM 86.0 °F 91.5 °F 71.1 °F 61% 30.00 in 10.0 mi SSW 4.6 mph - N/A   Partly Cloudy
1:54 PM 88.0 °F 92.9 °F 70.0 °F 55% 29.99 in 10.0 mi WSW 10.4 mph - N/A   Partly Cloudy
2:54 PM 88.0 °F 92.9 °F 70.0 °F 55% 29.98 in 10.0 mi WSW 4.6 mph - N/A   Scattered Clouds
3:54 PM 89.1 °F 94.1 °F 70.0 °F 53% 29.97 in 10.0 mi SW 4.6 mph - N/A   Scattered Clouds
4:54 PM 89.1 °F 95.0 °F 71.1 °F 55% 29.96 in 10.0 mi SW 6.9 mph - N/A   Partly Cloudy
5:54 PM 89.1 °F 94.1 °F 70.0 °F 53% 29.95 in 10.0 mi WSW 6.9 mph - N/A   Partly Cloudy
6:54 PM 87.1 °F 91.3 °F 69.1 °F 55% 29.95 in 10.0 mi WSW 6.9 mph - N/A   Clear
7:54 PM 82.9 °F 87.5 °F 71.1 °F 67% 29.95 in 10.0 mi SW 3.5 mph - N/A   Clear
8:54 PM 77.0 °F - 73.0 °F 88% 29.96 in 10.0 mi Calm Calm - N/A   Clear
9:54 PM 75.9 °F - 72.0 °F 87% 29.98 in 10.0 mi Calm Calm - N/A   Clear
10:54 PM 75.0 °F - 72.0 °F 90% 29.99 in 10.0 mi Calm Calm - N/A   Clear
11:54 PM 75.9 °F - 72.0 °F 87% 30.00 in 10.0 mi South 5.8 mph - N/A   Clear